カタログに戻る

COSMOS 970 DEB

運用中LEO
NORAD 10878·DEBRIS·🇷🇺 Russia

打ち上げ Dec 21, 1977 から Baikonur Cosmodrome

Loading…

次のパス (今後24時間)

TLE

最新Source: Space-Track

元期: Sep 14, 2026, 21:07 UTC

1 10878U 77121Z   26257.88015228  .00000060  00000-0  16291-3 0  9996
2 10878  65.8389 210.4411 0114746 179.7415 211.5975 13.65277820421081

AllMySatでCOSMOS 970 DEBをリアルタイム追跡

Download on the App Store